[[{"header":{"parameterUnit":"m.s-1","parameterCategory":1,"la1":30.2992,"la2":30.254,"lo1":-89.0895,"lo2":-89.0443,"dy":0.0025,"dx":0.0025,"nx":19,"ny":19,"refTime":"2026-04-12T09:00:00:Z","depth":0,"parameterNumber":2,"parameterNumberName":"U-component_of_WINDS"},"data":[0,0,0,-4.0523,-4.0524,-4.0545,-4.0545,-4.0591,-4.0592,0,0,0,0,0,0,0,0,0,0,0,-4.0529,-4.0529,-4.0523,-4.0524,-4.0545,-4.0545,-4.0591,-4.0592,0,0,0,0,0,0,0,0,0,0,0,-4.0528,-4.0529,-4.053,-4.0524,-4.0545,-4.0545,-4.0591,-4.0568,0,0,0,0,0,0,0,0,0,0,-4.0545,-4.0561,-4.0529,-4.053,-4.0524,-4.0545,-4.0545,-4.0567,-4.057,-4.059,0,-4.0611,0,-4.0603,-4.0596,-4.0597,0,0,0,-4.0515,-4.0559,-4.0554,-4.053,-4.0525,-4.0545,-4.0533,-4.0568,-4.0572,-4.0594,-4.0612,-4.0613,-4.0603,-4.0597,-4.0597,-4.0743,-4.0744,0,0,-4.0514,-4.0538,-4.0552,-4.0557,-4.0554,-4.0532,-4.0534,-4.057,-4.0591,-4.0612,-4.0614,-4.0604,-4.0597,-4.0598,-4.0742,-4.0743,0,0,0,-4.0517,-4.0538,-4.0532,-4.0555,-4.0557,-4.0533,-4.0535,-4.0589,-4.0585,-4.0614,-4.0605,-4.0598,-4.0598,-4.0741,-4.0742,-4.0818,0,0,0,-4.0516,-4.0539,-4.0532,-4.0547,-4.0557,-4.0573,-4.0553,-4.0583,-4.0586,-4.0604,-4.0598,-4.0599,-4.0739,-4.0742,-4.0814,-4.085,0,0,0,-4.0523,-4.054,-4.0547,-4.0548,-4.0558,-4.0572,-4.057,-4.0583,-4.0581,-4.0597,-4.0599,-4.0739,-4.0741,-4.0809,-4.0843,-4.0894,0,0,0,-4.0538,-4.0615,-4.0549,-4.0631,-4.0558,-4.0619,-4.0569,-4.0614,-4.0637,-4.0598,-4.074,-4.0742,-4.0808,-4.0838,-4.089,-4.0941,-4.0965,0,0,-4.0648,-4.0629,-4.0675,-4.0617,-4.0696,-4.0614,-4.0705,-4.0703,-4.0683,-4.0724,-4.0728,-4.0815,-4.0842,-4.0893,-4.1093,-4.1113,0,0,0,-4.0718,-4.0751,-4.0767,-4.079,-4.0791,-4.0794,-4.0776,-4.0776,-4.081,-4.0709,-4.0848,-4.0863,-4.0892,-4.0915,-4.0932,-4.0955,-4.0754,-4.0754,-4.0754,-4.0906,-4.0876,-4.0951,-4.0924,-4.0947,-4.0928,-4.0944,-4.0941,-4.0904,-4.0938,-4.0949,-4.1074,-4.1102,-4.1114,-4.1139,-4.0975,-4.0975,-4.0976,-4.0976,-4.1063,-4.1105,-4.1055,-4.1109,-4.1078,-4.1124,-4.111,-4.1082,-4.112,-4.1063,-4.1087,-4.1025,-4.1136,-4.1156,-4.0981,-4.098,-4.098,-4.0979,-4.0979,-4.1181,-4.1196,-4.1195,-4.1225,-4.1253,-4.1224,-4.1263,-4.1233,-4.1206,-4.123,-4.1238,-4.1237,-4.1231,-4.1236,-4.1237,-4.1237,-4.1237,-4.1238,-4.1238,-4.1304,-4.13,-4.1336,-4.1345,-4.1356,-4.1367,-4.1351,-4.1361,-4.1365,-4.134,-4.134,-4.13,-4.1153,-4.1116,-4.1245,-4.1243,-4.1243,-4.1242,-4.1242,-4.1471,-4.1429,-4.1484,-4.1496,-4.1504,-4.1533,-4.1495,-4.152,-4.1524,-4.1544,-4.15,-4.1397,-4.1374,-4.1361,-4.133,-4.1506,-4.1506,-4.1506,-4.1506,-4.157,-4.1557,-4.1607,-4.1627,-4.1644,-4.1616,-4.168,-4.1669,-4.1651,-4.1652,-4.1623,-4.158,-4.1568,-4.1553,-4.1535,-4.1506,-4.1723,-4.1723,-4.1723,-4.1671,-4.1658,-4.1717,-4.1699,-4.1703,-4.1708,-4.1768,-4.1793,-4.1764,-4.1731,-4.1652,-4.1643,-4.1573,-4.1552,-4.1516,-4.1489,-4.1434,0,0]},{"header":{"parameterUnit":"m.s-1","parameterCategory":1,"la1":30.2992,"la2":30.254,"lo1":-89.0895,"lo2":-89.0443,"dy":0.0025,"dx":0.0025,"nx":19,"ny":19,"refTime":"2026-04-12T09:00:00:Z","depth":0,"parameterNumber":3,"parameterNumberName":"V-component_of_WINDS"},"data":[0,0,0,3.5021,3.5024,3.5167,3.5168,3.5331,3.5333,0,0,0,0,0,0,0,0,0,0,0,3.4968,3.4969,3.5021,3.5024,3.5167,3.5168,3.5331,3.5333,0,0,0,0,0,0,0,0,0,0,0,3.4967,3.4968,3.4969,3.5025,3.5167,3.5168,3.5331,3.5229,0,0,0,0,0,0,0,0,0,0,3.5093,3.5034,3.4968,3.4969,3.5025,3.5167,3.5168,3.5225,3.5236,3.5258,0,3.5277,0,3.5308,3.5343,3.5343,0,0,0,3.5031,3.5025,3.5074,3.497,3.5027,3.5167,3.5105,3.5231,3.5243,3.5273,3.528,3.5286,3.531,3.5343,3.5344,3.5458,3.5458,0,0,3.5023,3.4987,3.5065,3.5081,3.506,3.51,3.5109,3.5239,3.5243,3.528,3.5291,3.5313,3.5344,3.5346,3.5457,3.5458,0,0,0,3.4996,3.4981,3.5027,3.5074,3.5101,3.5104,3.5114,3.5238,3.5256,3.5292,3.5315,3.5345,3.5347,3.5457,3.5458,3.5434,0,0,0,3.4991,3.4965,3.5023,3.5003,3.5099,3.5172,3.511,3.5247,3.5263,3.5314,3.5345,3.5349,3.5457,3.5457,3.5434,3.5428,0,0,0,3.4962,3.4962,3.498,3.5001,3.5061,3.517,3.5196,3.5251,3.5276,3.5343,3.5349,3.5457,3.5457,3.5435,3.5429,3.5449,0,0,0,3.492,3.4954,3.4978,3.5026,3.506,3.5155,3.5196,3.5268,3.5323,3.5346,3.5457,3.5458,3.5435,3.5429,3.5449,3.546,3.5461,0,0,3.4943,3.4955,3.4986,3.5013,3.5095,3.5136,3.5215,3.5297,3.5335,3.5414,3.5417,3.5434,3.5429,3.5449,3.548,3.548,0,0,0,3.4981,3.5003,3.5033,3.5085,3.5151,3.5207,3.5282,3.5314,3.5383,3.5369,3.5448,3.5446,3.5459,3.5466,3.5467,3.5481,3.5459,3.5459,3.5459,3.4961,3.5011,3.5066,3.5133,3.5183,3.5262,3.5307,3.5362,3.5395,3.5413,3.5436,3.5449,3.5456,3.5457,3.5471,3.5446,3.5446,3.5446,3.5446,3.5,3.5039,3.5086,3.5156,3.5208,3.5266,3.5344,3.5366,3.5427,3.5435,3.5449,3.5453,3.5456,3.5471,3.5444,3.5445,3.5445,3.5445,3.5445,3.4992,3.502,3.506,3.5143,3.52,3.5267,3.5326,3.537,3.5412,3.5426,3.5457,3.5457,3.5464,3.5437,3.5437,3.5438,3.5438,3.5438,3.5438,3.4969,3.5014,3.506,3.5135,3.5176,3.5236,3.5317,3.5358,3.5414,3.5442,3.5443,3.5474,3.5447,3.544,3.5439,3.5438,3.5438,3.5438,3.5438,3.499,3.4993,3.5062,3.5104,3.5198,3.5253,3.5311,3.5391,3.5431,3.5458,3.5488,3.5461,3.5476,3.5476,3.547,3.5477,3.5477,3.5477,3.5477,3.4984,3.4997,3.508,3.5144,3.5211,3.5271,3.5347,3.5412,3.5478,3.5506,3.5512,3.5508,3.5506,3.5522,3.5521,3.5516,3.5535,3.5535,3.5535,3.5,3.5023,3.508,3.5148,3.5226,3.5291,3.5365,3.5435,3.551,3.5538,3.5529,3.5527,3.5521,3.5517,3.5542,3.5539,3.5532,0,0]}]]